User: anonymous   Login
Location: Unspecified
(0.0000°N, 0.0000°E)
Time: 19:17:21
(UTC+00:00)
Language:

SUSAT - Orbit

View from above orbital plane
View from above orbital plane
View from above satellite
View from above satellite

Ground track
Ground track

The orbit data is extracted from the following two-line orbital elements,

1 42730U 98067MK  18168.98940773  .00021488  00000-0  18044-3 0  9990
2 42730  51.6359 353.0950 0002598 222.8446 137.2350 15.69849481 60466
Epoch (UTC): 17 June 2018 23:44:44
Eccentricity: 0.0002598
inclination: 51.6359°
perigee height: 357 km
apogee height: 361 km
right ascension of ascending node: 353.0950°
argument of perigee: 222.8446°
revolutions per day: 15.69849481
mean anomaly at epoch: 137.2350°
orbit number at epoch: 6046

The dashed part of the orbit path shows where the satellite is in the earth's shadow,  

DLR